Regional Weather Roundup
Issued by NWS

Home | Current Version | Previous Version | Text Only | Print | Product List | Glossary On
Versions: 1 2 3 4 5 6 7 8 9 10 11 12 13 14 15 16 17 18 19 20 21 22 23 24 25 26 27 28 29 30 31 32 33 34 35 36 37 38 39 40 41 42 43 44 45 46 47 48 49 50
000
ASUS43 KFSD 231802
RWRSD

WEATHER ROUNDUP FOR SOUTH DAKOTA
NATIONAL WEATHER SERVICE SIOUX FALLS SD
100 PM CDT WED MAY 23 2018

NOTE: "FAIR" INDICATES FEW OR NO CLOUDS BELOW 12,000 FEET WITH NO
SIGNIFICANT WEATHER AND/OR OBSTRUCTIONS TO VISIBILITY.


SDZ001>005-009-010-012>017-231900-
NORTHWEST AND NORTH CENTRAL SOUTH DAKOTA

CITY           SKY/WX    TMP DP  RH WIND       PRES   REMARKS
BUFFALO          N/A     74  57  55 S12G21    29.83S
FAITH            N/A     68  64  87 S6        29.89F
MOBRIDGE       CLOUDY    75  65  70 SE13      29.87S
$$

SDZ012>016-024>037-041>051-057-063-072>074-231900-
SOUTHWEST AND SOUTH CENTRAL SOUTH DAKOTA

CITY           SKY/WX    TMP DP  RH WIND       PRES   REMARKS
RAPID CTY ARPT MOSUNNY   71  60  68 SE9       29.92S
PIERRE         PTSUNNY   79  67  66 S17G25    29.86S
CUSTER         SUNNY     67  46  47 VRB5      30.02R
ELLSWORTH AFB  MOSUNNY   71  62  71 S7        29.91F
PHILIP         CLOUDY    71  63  75 SW9       29.90S
PINE RIDGE     CLOUDY    66  59  78 W7        29.95F
SPEARFISH      FAIR      70  57  64 VRB3      29.94R
WINNER         FAIR      82  65  56 S17G25    29.91S
$$

SDZ004>011-016>023-039-040-231900-
NORTHEAST SOUTH DAKOTA

CITY           SKY/WX    TMP DP  RH WIND       PRES   REMARKS
ABERDEEN       MOSUNNY   78  67  68 SE25G36   29.94F
WATERTOWN      CLOUDY    71  64  78 SE14G28   30.01F
BROOKINGS      CLOUDY    75  65  70 SE18G24   30.05F
SISSETON         N/A     67  64  90 SE22      29.98F
$$

SDZ017-020-022-023-036>040-048>070-231900-
SOUTHEAST SOUTH DAKOTA

CITY           SKY/WX    TMP DP  RH WIND       PRES   REMARKS
SIOUX FALLS    PTSUNNY   79  68  69 SE17G29   30.02F
HURON          PTSUNNY   78  66  66 SE18G29   29.92S
CHAMBERLAIN    SUNNY     82  71  69 S17G23    29.92S
MITCHELL       CLOUDY    79  67  66 SE14G24   29.94F
YANKTON        MOSUNNY   86  62  44 SE18G30   29.98F
$$

ABBREVIATIONS USED IN REMARKS
   TC - TEMPERATURE IN CELSIUS
  WCI - WIND CHILL INDEX
   HX - HEAT INDEX
  VSB - VISIBILITY





USA.gov is the U.S. government's official web portal to all federal, state and local government web resources and services.